Date,TemperatureHighF,TemperatureAvgF,TemperatureLowF,DewpointHighF,DewpointAvgF,DewpointLowF,HumidityHigh,HumidityAvg,HumidityLow,PressureMaxIn,PressureMinIn,WindSpeedMaxMPH,WindSpeedAvgMPH,GustSpeedMaxMPH,PrecipitationSumIn
2013-1-1,14.2,6.7,-4.9,-0.9,-9.2,-18.4,51,47,41,30.15,29.97,15,5,15,0.00
2013-1-2,18.3,15.6,12.9,10.1,5.2,-5.8,76,63,42,30.00,29.91,8,4,9,0.00
2013-1-3,23.2,18.1,13.3,13.4,3.8,-3.6,72,54,38,30.12,29.83,16,6,19,0.00
2013-1-4,34.9,22.6,14.0,12.9,7.2,2.1,67,52,39,30.09,29.85,14,4,14,0.00
2013-1-5,29.1,21.7,11.1,14.6,9.4,3.9,73,60,41,30.09,29.83,6,2,9,0.00
2013-1-6,26.4,21.8,15.1,13.7,6.3,-1.1,61,51,42,30.12,29.88,8,4,10,0.00
2013-1-7,38.5,28.9,16.0,15.8,10.7,-1.6,54,46,39,30.00,29.71,19,8,19,0.00
2013-1-8,34.2,27.7,19.6,21.1,15.1,12.0,76,59,43,30.00,29.68,15,3,17,0.00
2013-1-9,34.3,30.1,21.4,16.5,11.2,7.3,55,45,40,30.30,29.77,21,6,21,0.00
2013-1-10,43.7,33.7,20.7,27.8,11.6,7.3,79,42,26,30.33,29.77,12,5,14,0.28
2013-1-11,39.9,36.0,33.6,38.6,33.4,27.8,95,90,79,29.77,29.35,6,2,6,0.04
2013-1-12,40.6,24.2,11.1,39.6,12.1,-4.9,96,60,47,29.97,29.32,18,7,21,0.00
2013-1-13,10.9,8.4,6.3,-4.9,-7.3,-9.2,48,48,48,30.09,29.94,9,4,10,0.00
2013-1-14,9.7,6.2,3.4,-6.1,-9.3,-11.9,48,48,48,30.30,30.09,10,4,11,0.00
2013-1-15,26.6,17.0,7.7,7.2,-1.0,-7.9,49,45,36,30.24,29.71,14,6,15,0.00
2013-1-16,28.2,21.0,5.2,20.1,5.6,-15.1,77,53,37,30.15,29.50,15,6,19,0.00
2013-1-17,9.5,3.7,-0.6,-11.0,-16.2,-20.1,38,38,38,30.33,30.15,9,4,11,0.00
2013-1-18,17.8,11.7,1.8,9.8,-2.9,-18.0,71,53,38,30.27,29.74,6,1,6,0.00
2013-1-19,30.4,17.4,1.6,22.9,5.8,-14.8,76,61,45,30.03,29.53,14,5,18,0.00
2013-1-20,1.9,-1.2,-3.5,-14.5,-17.4,-19.5,45,45,45,30.24,30.03,10,5,12,0.00
2013-1-21,-3.5,-10.5,-14.1,-19.5,-26.0,-29.3,45,45,45,30.18,30.09,9,4,13,0.00
2013-1-22,1.2,-8.9,-19.1,-15.2,-24.5,-33.9,45,45,45,30.27,30.15,8,3,9,0.00
2013-1-23,7.3,-2.6,-9.6,-9.5,-18.6,-25.1,45,45,45,30.50,30.03,12,5,14,0.00
2013-1-24,4.6,-2.7,-13.9,-12.0,-18.8,-29.1,45,45,45,30.59,30.15,6,2,6,0.00
2013-1-25,21.6,11.1,4.6,4.9,-3.5,-12.0,64,51,44,30.18,29.88,9,4,11,0.00
2013-1-26,19.4,12.6,3.6,4.0,-1.2,-7.2,60,54,45,30.33,30.15,6,2,6,0.00
2013-1-27,30.7,24.5,16.2,24.0,10.0,-0.1,84,55,41,30.15,29.83,7,3,7,0.00
2013-1-28,33.6,27.6,21.0,26.5,22.0,16.7,85,79,64,29.88,29.68,5,0,5,0.00
2013-1-29,33.6,30.1,26.4,30.3,24.2,13.7,92,79,58,29.71,29.50,8,3,11,0.00
2013-1-30,26.4,16.8,8.6,13.5,4.4,-3.9,66,58,53,29.71,29.56,12,5,12,0.00
2013-1-31,8.6,6.3,-1.1,-3.9,-6.0,-13.2,56,56,56,30.06,29.59,10,4,12,0.00
2013-2-1,1.8,-7.3,-18.2,-10.3,-18.8,-29.1,56,56,56,30.15,30.06,11,5,11,0.00
2013-2-2,13.5,3.4,-7.1,0.7,-8.7,-18.6,56,56,56,30.12,29.91,8,3,10,0.00
2013-2-3,10.0,5.5,0.7,-2.5,-6.8,-11.3,56,56,56,29.97,29.85,12,4,12,0.00
2013-2-4,8.6,-0.9,-6.3,-9.1,-14.0,-18.4,56,53,29,30.00,29.71,8,4,8,0.00
2013-2-5,22.6,14.0,7.7,6.6,-5.1,-17.9,69,43,29,30.00,29.59,9,4,10,0.00
2013-2-6,20.5,14.5,4.5,15.0,1.0,-13.7,79,56,42,30.09,30.00,7,2,7,0.00
2013-2-7,25.0,22.1,19.2,16.8,14.9,9.6,80,73,60,30.27,30.06,11,4,14,0.00
2013-2-8,23.7,15.7,10.4,9.4,2.5,-2.2,66,56,43,30.36,30.24,7,3,8,0.00
2013-2-9,25.5,20.3,11.7,17.4,9.6,-2.9,80,63,49,30.24,30.00,11,5,11,0.00
2013-2-10,30.6,25.6,22.1,28.5,21.3,15.9,92,84,70,30.00,29.29,11,4,12,0.00
2013-2-11,30.6,25.1,20.3,29.0,17.9,9.6,94,75,59,29.88,29.29,10,5,12,0.00
2013-2-12,32.5,23.3,14.0,13.9,10.3,4.9,70,58,44,29.91,29.68,12,5,13,0.00
2013-2-13,41.9,29.8,21.6,20.0,14.9,10.0,74,54,38,29.68,29.59,12,4,12,0.00
2013-2-14,27.9,21.9,13.3,18.0,7.9,-4.6,76,55,41,30.06,29.65,11,4,11,0.00
2013-2-15,16.2,11.4,7.9,-4.4,-7.9,-12.6,44,41,36,30.18,30.06,11,4,12,0.00
2013-2-16,15.1,6.5,-0.6,-4.4,-13.0,-20.1,42,39,38,30.15,30.09,7,1,9,0.00
2013-2-17,27.3,14.9,-0.2,4.7,-5.4,-18.3,43,39,35,30.09,29.71,12,5,13,0.00
2013-2-18,32.2,25.4,15.8,20.7,11.9,3.7,77,57,43,29.71,29.47,14,5,14,0.00
2013-2-19,15.4,5.9,-0.2,4.4,-5.0,-10.8,61,60,60,30.21,29.59,14,7,16,0.00
2013-2-20,21.2,9.7,2.1,2.5,-6.0,-16.3,60,49,36,30.42,30.21,9,4,9,0.00
2013-2-21,21.0,15.0,3.7,14.9,1.8,-14.9,79,56,41,30.45,30.15,9,4,12,0.00
2013-2-22,27.0,23.5,20.1,21.4,18.0,13.0,84,79,72,30.15,29.77,10,3,12,0.00
2013-2-23,31.5,26.9,23.0,25.3,21.1,18.2,84,79,63,29.88,29.77,6,2,6,0.00
2013-2-24,33.8,28.7,25.2,27.5,20.3,13.3,84,71,52,30.05,29.88,6,1,6,0.00
2013-2-25,37.0,27.9,19.2,16.6,13.9,9.2,69,56,40,30.11,30.05,9,2,9,0.00
2013-2-26,38.7,27.9,17.4,24.4,16.8,11.5,81,64,40,30.08,29.93,10,4,12,0.04
2013-2-27,30.9,29.6,27.9,19.9,16.9,13.0,69,59,49,30.02,29.90,13,6,13,0.00
2013-2-28,27.9,24.2,21.6,15.1,9.6,5.0,66,53,46,30.26,30.02,13,6,13,0.00
2013-3-1,23.5,18.6,8.2,9.4,4.6,-4.4,63,54,44,30.37,30.26,12,4,12,0.00
2013-3-2,27.9,15.8,7.7,3.2,-1.1,-7.1,56,47,33,30.35,30.17,9,3,9,0.00
2013-3-3,29.7,16.3,2.5,7.1,-1.1,-11.9,61,46,31,30.17,30.08,7,2,8,0.00
2013-3-4,29.3,21.8,13.5,15.0,5.9,-2.1,61,50,37,30.11,30.05,12,4,12,0.00
2013-3-5,26.4,22.9,18.5,15.8,9.5,4.0,74,57,44,30.26,30.05,16,4,16,0.00
2013-3-6,31.1,22.6,18.5,11.6,6.9,2.2,71,52,36,30.35,30.26,8,2,10,0.00
2013-3-7,32.9,20.6,10.8,11.5,6.6,0.3,75,56,35,30.40,30.32,8,2,8,0.00
2013-3-8,44.2,28.6,15.1,19.6,14.4,6.8,76,57,36,30.35,30.14,11,3,11,0.00
2013-3-9,33.6,30.8,24.3,30.8,25.5,15.0,92,81,53,30.14,29.75,6,1,6,0.04
2013-3-10,33.4,31.6,27.9,31.2,22.0,14.2,92,68,55,29.99,29.75,10,5,12,0.08
2013-3-11,27.9,24.3,22.1,20.0,14.4,10.0,78,66,54,29.93,29.72,13,5,15,0.00
2013-3-12,22.8,20.8,17.4,13.8,8.4,1.1,72,59,45,30.08,29.72,11,4,11,0.00
2013-3-13,35.1,23.6,12.6,2.0,-1.2,-4.7,48,35,22,30.29,30.08,9,4,12,0.04
2013-3-14,38.7,28.7,13.6,17.8,8.3,-2.6,51,42,31,30.20,29.96,12,4,12,0.04
2013-3-15,33.6,24.3,16.0,18.8,9.0,2.5,72,52,41,30.02,29.93,9,5,10,0.00
2013-3-16,24.3,16.3,7.9,8.6,1.7,-12.4,73,54,35,30.20,29.96,14,4,14,0.00
2013-3-17,27.3,13.3,0.0,5.6,-6.8,-19.6,54,40,31,30.26,29.93,8,4,8,0.00
2013-3-18,30.4,23.6,18.3,22.5,11.6,0.4,73,60,40,29.93,29.49,12,5,14,0.00
2013-3-19,26.4,17.8,11.3,12.8,2.1,-6.8,70,52,32,29.99,29.52,18,7,19,0.00
2013-3-20,19.2,13.4,7.5,-0.3,-5.7,-11.7,48,41,38,30.05,29.96,12,5,14,0.00
2013-3-21,31.1,19.2,12.6,5.2,1.2,-1.9,60,46,32,30.05,29.99,9,2,10,0.00
2013-3-22,30.7,23.0,14.5,15.1,8.8,-0.1,71,54,41,30.08,30.02,7,3,8,0.00
2013-3-23,33.6,25.2,14.5,15.1,11.5,7.4,77,57,41,30.17,30.08,7,2,8,0.00
2013-3-24,30.4,25.5,21.9,21.1,13.3,8.1,78,60,47,30.14,30.02,11,3,12,0.00
2013-3-25,33.3,27.4,20.8,14.9,13.0,10.3,72,55,41,30.17,30.02,12,3,12,0.00
2013-3-26,38.3,32.6,27.7,16.0,13.0,9.9,53,44,33,30.26,30.17,7,2,8,0.00
2013-3-27,44.1,35.0,25.9,13.1,8.9,3.7,42,33,28,30.32,30.26,9,2,10,0.00
2013-3-28,48.0,34.5,21.2,15.6,8.5,2.9,45,34,24,30.32,30.26,8,2,8,0.00
2013-3-29,53.6,41.5,27.9,19.4,13.8,4.4,41,32,23,30.29,30.08,10,4,10,0.00
2013-3-30,50.0,41.5,35.8,37.4,28.0,17.5,88,62,38,30.08,29.75,9,4,10,0.28
2013-3-31,41.2,32.9,23.7,21.1,11.0,-1.2,60,40,30,29.99,29.70,14,6,16,0.00
2013-4-1,33.3,25.6,20.3,5.9,1.6,-2.8,53,35,30,30.14,29.99,12,5,14,0.00
2013-4-2,36.7,27.3,18.0,7.6,3.1,-2.8,53,36,24,30.32,30.14,10,4,13,0.00
2013-4-3,46.6,31.2,13.6,16.4,3.2,-6.9,43,31,19,30.37,29.99,17,5,18,0.00
2013-4-4,45.3,39.7,30.7,22.2,14.9,5.3,49,36,28,30.14,29.93,16,6,16,0.00
2013-4-5,37.6,29.6,22.6,14.1,8.8,4.7,54,41,33,30.29,30.08,6,3,7,0.00
2013-4-6,34.3,31.7,28.0,29.8,27.1,14.3,90,83,55,30.08,29.61,6,2,8,0.16
2013-4-7,39.0,34.5,30.6,29.6,24.6,17.4,89,68,47,29.93,29.67,6,1,6,0.28
2013-4-8,37.0,34.2,32.2,36.3,31.7,19.2,97,91,58,30.05,29.81,6,1,6,0.20
2013-4-9,39.2,34.1,30.0,32.8,21.6,11.7,96,63,41,30.23,30.05,12,4,14,0.00
2013-4-10,36.9,32.4,28.0,15.1,12.3,6.9,57,44,31,30.23,30.08,12,5,12,0.00
2013-4-11,31.3,28.6,26.6,24.2,18.9,11.6,87,68,44,30.08,29.78,16,7,18,0.00
2013-4-12,31.1,27.6,23.7,25.8,22.9,18.8,89,82,77,29.81,29.72,13,6,14,0.00
2013-4-13,34.3,26.1,22.8,23.0,17.4,12.1,81,71,42,29.96,29.78,7,4,7,0.08
2013-4-14,37.4,29.3,19.4,30.2,19.9,12.0,95,69,42,29.99,29.67,12,3,13,0.16
2013-4-15,38.8,35.1,31.6,34.8,24.4,17.4,98,68,43,29.84,29.55,15,5,15,0.31
2013-4-16,44.4,37.2,29.7,26.3,19.3,13.2,72,50,32,30.37,29.84,10,4,11,0.00
2013-4-17,36.5,32.1,29.1,28.5,23.4,16.0,88,71,48,30.40,30.05,11,4,11,0.00
2013-4-18,32.5,31.2,29.3,29.9,28.1,26.3,90,88,81,30.05,29.40,18,5,18,0.00
2013-4-19,29.3,26.4,21.6,26.5,16.1,3.8,89,66,44,29.93,29.37,13,0,15,0.00
2013-4-20,38.7,25.0,14.4,8.2,3.4,-0.7,54,40,24,30.35,29.93,9,2,10,0.16
2013-4-21,38.1,28.0,19.9,32.0,12.0,4.7,81,51,41,30.38,30.08,12,3,13,0.04
2013-4-22,47.5,37.6,31.6,34.7,22.9,12.0,87,60,27,30.23,30.08,9,4,9,0.00
2013-4-23,45.5,35.1,29.1,29.0,18.2,6.1,86,55,28,30.14,29.99,9,4,10,0.24
2013-4-24,48.9,36.0,27.9,27.5,15.5,5.2,79,45,27,30.02,29.87,13,4,13,0.08
2013-4-25,49.3,38.9,30.0,26.5,18.5,11.2,78,47,27,30.17,29.93,12,4,12,0.00
2013-4-26,66.6,48.5,36.1,30.8,24.3,15.9,73,40,24,30.14,30.02,11,3,11,0.04
2013-4-27,72.3,56.7,40.6,31.8,27.1,23.2,53,34,19,30.14,29.90,9,2,9,0.00
2013-4-28,70.2,58.0,52.0,42.7,34.3,29.9,65,42,24,29.90,29.70,14,5,14,0.00
2013-4-29,66.9,52.4,41.9,43.2,30.0,22.6,72,45,24,29.84,29.67,10,3,10,0.00
2013-4-30,76.6,57.0,39.6,52.3,34.3,19.5,88,49,20,29.90,29.46,18,4,18,0.00
2013-5-1,54.1,39.3,32.2,27.0,22.9,15.6,80,53,27,30.49,29.90,10,3,10,0.12
2013-5-2,35.1,31.1,29.5,27.0,24.8,18.8,87,78,53,30.55,30.46,7,2,7,0.04
2013-5-3,30.0,29.3,28.0,26.5,24.3,21.6,87,82,73,30.46,30.23,10,4,10,0.00
2013-5-4,36.3,32.9,29.7,33.0,29.1,26.0,94,86,72,30.26,30.20,9,4,9,0.24
2013-5-5,45.9,35.6,32.9,38.4,32.3,27.1,97,89,50,30.26,30.14,7,3,7,0.00
2013-5-6,64.8,47.7,29.7,37.4,31.3,26.1,89,58,33,30.17,30.05,6,1,6,0.00
2013-5-7,74.1,61.2,46.2,41.9,32.9,28.8,74,36,23,30.11,29.99,9,2,9,0.00
2013-5-8,78.3,61.5,45.9,43.6,34.7,27.8,74,39,20,30.08,29.99,11,2,11,0.00
2013-5-9,48.4,39.5,34.9,39.8,29.0,18.5,87,67,46,30.23,30.05,16,6,16,0.55
2013-5-10,48.2,38.8,33.3,21.7,18.5,13.8,60,45,28,30.20,29.87,11,4,11,0.00
2013-5-11,45.9,39.1,35.4,25.5,17.8,11.3,57,42,33,30.11,29.87,15,6,15,0.00
2013-5-12,51.1,41.1,33.6,15.5,11.8,7.6,41,31,19,30.17,30.11,12,5,12,0.00
2013-5-13,59.9,53.1,35.6,24.0,18.6,8.7,32,26,19,30.14,29.70,12,5,12,0.00
2013-5-14,82.8,59.0,40.1,38.7,30.1,23.4,57,35,20,29.81,29.40,13,3,13,0.00
2013-5-15,79.3,65.8,52.5,37.2,31.1,23.6,49,29,15,29.84,29.58,13,5,16,0.00
2013-5-16,63.1,55.4,45.7,31.1,25.8,20.5,45,32,24,30.05,29.84,10,4,10,0.00
2013-5-17,61.9,50.5,42.3,32.0,27.8,25.0,58,42,29,30.14,30.05,10,4,10,0.00
2013-5-18,60.8,52.9,46.4,54.5,45.5,27.6,92,77,47,30.08,29.90,7,1,7,0.87
2013-5-19,64.4,52.7,44.2,53.5,46.7,37.8,96,82,49,29.90,29.75,12,4,12,0.00
2013-5-20,55.2,45.6,40.5,53.0,43.9,39.7,98,94,63,29.78,29.64,14,5,14,0.00
2013-5-21,47.5,41.5,39.0,45.9,40.0,36.8,98,95,73,29.81,29.67,14,5,14,0.00
2013-5-22,46.2,42.9,40.3,42.3,39.0,30.5,98,87,56,30.11,29.81,14,5,14,0.00
2013-5-23,52.0,41.4,34.2,31.5,23.9,18.7,71,52,27,30.38,30.11,10,4,10,0.00
2013-5-24,67.1,48.3,30.2,28.1,23.1,18.7,70,40,23,30.46,30.29,10,2,10,0.00
2013-5-25,65.3,52.8,41.4,34.7,27.3,21.2,56,38,28,30.37,30.29,9,2,9,0.00
2013-5-26,65.7,52.6,36.9,31.0,24.8,18.1,62,36,25,30.35,30.17,13,3,13,0.00
2013-5-27,65.5,50.1,38.5,33.1,27.6,19.9,69,44,25,30.20,29.93,10,2,10,0.00
2013-5-28,67.3,57.0,50.4,37.2,32.5,28.1,51,40,33,29.93,29.75,9,2,9,0.00
2013-5-29,81.5,63.2,50.4,49.6,43.5,32.4,73,51,24,29.84,29.75,10,2,10,0.00
2013-5-30,80.8,67.6,59.4,64.9,55.5,47.8,92,68,34,29.78,29.60,14,2,14,0.87
2013-5-31,81.0,65.9,56.7,56.8,50.7,36.9,78,60,25,29.66,29.57,19,4,19,0.08
2013-6-1,65.3,53.7,42.1,52.3,44.6,37.4,88,73,46,29.93,29.60,9,2,9,0.00
2013-6-2,63.9,47.0,40.5,38.2,32.7,24.9,86,63,24,30.08,29.93,9,4,9,0.04
2013-6-3,62.2,50.1,35.6,33.5,26.5,21.1,79,43,24,30.14,30.05,8,2,8,0.04
2013-6-4,63.1,52.2,43.7,33.6,27.8,21.0,58,39,26,30.19,30.14,8,2,8,0.04
2013-6-5,52.3,48.7,45.9,50.7,45.0,33.1,95,87,58,30.16,30.08,7,2,7,0.59
2013-6-6,54.5,48.7,46.6,50.9,42.8,34.9,98,82,53,30.11,30.05,8,2,8,0.04
2013-6-7,68.4,54.0,39.4,41.5,32.7,24.8,85,49,23,30.11,29.99,6,1,6,0.04
2013-6-8,68.2,57.2,46.2,50.3,36.4,26.4,86,49,28,30.02,29.96,7,1,7,0.04
2013-6-9,59.2,53.2,45.0,53.2,44.5,29.3,88,73,49,30.05,29.90,8,1,8,0.00
2013-6-10,71.4,60.8,52.3,58.1,50.7,44.4,92,72,45,29.90,29.84,6,0,6,0.04
2013-6-11,79.2,66.3,55.6,59.3,46.6,34.1,86,54,21,29.93,29.84,9,1,9,0.04
2013-6-12,80.8,66.5,52.2,44.7,38.6,34.6,71,39,20,29.93,29.84,6,1,6,0.04
2013-6-13,69.4,59.9,49.1,43.1,37.7,31.9,73,46,27,30.16,29.93,9,2,9,0.04
2013-6-14,71.8,57.0,43.2,47.3,37.6,30.9,86,52,32,30.19,29.99,9,1,9,0.04
2013-6-15,73.2,63.5,53.2,57.6,50.9,34.3,81,64,46,29.99,29.84,7,1,7,0.00
2013-6-16,80.1,65.3,55.9,53.0,42.5,33.5,85,48,21,29.93,29.84,14,2,14,0.08
2013-6-17,57.0,50.9,40.8,52.2,42.8,34.3,93,75,45,30.11,27.24,8,2,8,0.00
2013-6-18,67.1,52.0,35.6,45.5,31.1,24.5,88,51,25,30.19,30.11,6,1,6,0.00
2013-6-19,79.0,64.6,43.5,45.1,39.8,29.4,64,42,26,30.14,29.99,7,2,7,0.00
2013-6-20,66.6,62.7,58.8,59.7,55.0,45.1,93,77,47,30.11,30.02,7,1,7,1.30
2013-6-21,63.3,60.2,57.7,61.6,58.6,56.0,95,94,93,30.05,29.93,6,2,6,1.06
2013-6-27,83.7,73.4,63.7,63.5,50.4,41.9,90,49,26,29.81,29.69,10,2,10,1.06
2013-6-28,75.9,67.8,58.1,59.7,50.6,43.1,83,59,31,29.84,28.38,8,1,8,1.06
2013-6-29,69.6,61.9,54.5,56.3,44.6,33.7,88,56,28,30.01,29.81,7,1,7,1.06
2013-6-30,78.6,65.4,52.7,45.9,38.7,34.4,58,40,21,30.13,30.01,6,0,6,1.06
2013-7-1,69.1,60.5,47.8,48.9,40.3,33.7,72,49,33,30.25,30.13,6,1,6,1.06
2013-7-2,72.1,55.7,41.2,43.6,34.3,28.4,77,48,23,30.22,30.13,0,0,0,1.06
2013-7-3,78.8,58.8,41.5,42.9,36.0,29.3,75,47,21,30.13,29.98,0,0,0,1.06
2013-7-4,84.4,70.8,53.1,48.6,45.9,40.4,68,43,26,30.01,29.90,8,1,8,1.06
2013-7-5,86.7,76.4,67.5,49.3,46.0,41.4,49,35,21,29.96,29.84,11,3,11,1.06
2013-7-6,83.3,74.5,65.3,67.0,54.1,44.9,88,52,33,29.93,29.87,9,3,9,1.06
2013-7-7,77.0,66.0,56.8,72.3,59.7,52.2,94,81,60,30.04,29.87,6,1,6,0.87
2013-7-8,71.8,60.0,53.4,67.1,53.5,48.8,94,81,52,30.04,29.93,5,0,5,0.00
2013-7-9,65.8,59.5,52.2,63.8,56.0,47.8,93,88,82,30.04,29.81,6,0,6,0.12
2013-7-10,73.9,65.3,57.0,57.7,45.4,38.9,86,52,29,30.04,29.87,9,2,9,0.00
2013-7-11,81.3,68.0,53.2,53.2,45.1,38.7,80,48,24,30.16,30.01,6,0,6,0.00
2013-7-12,84.4,74.2,62.8,50.3,46.5,43.5,63,38,26,30.07,29.96,10,4,10,0.00
2013-7-13,79.5,70.0,63.9,62.8,52.1,43.7,82,56,36,30.13,29.98,9,3,9,0.39
2013-7-14,81.1,70.6,64.4,62.1,56.0,50.0,82,62,34,30.25,30.13,6,1,6,0.08
2013-7-15,83.3,70.2,61.3,63.9,56.0,51.7,87,64,36,30.28,30.22,5,0,5,0.00
2013-7-16,88.3,77.7,63.7,66.7,58.5,53.7,83,55,32,30.22,30.16,9,2,9,0.24
2013-7-17,89.1,79.9,68.9,59.5,56.3,51.6,68,46,29,30.25,30.13,9,2,9,0.24
2013-7-18,90.3,79.0,66.7,67.8,57.7,53.2,86,52,29,30.13,29.69,12,3,12,0.00
2013-7-19,81.5,73.0,67.1,67.1,51.2,39.3,83,49,27,29.84,29.66,11,2,11,0.12
2013-7-20,66.9,59.5,47.1,45.8,37.7,32.9,68,45,33,30.07,29.84,6,1,6,0.00
2013-7-21,68.2,56.0,45.7,46.8,40.0,33.6,78,57,34,30.07,29.90,7,1,7,0.00
2013-7-22,81.9,66.6,50.9,60.5,48.7,36.7,84,56,30,29.90,29.66,10,3,10,0.00
2013-7-23,68.2,59.9,50.9,43.1,38.4,33.9,69,46,31,30.04,29.81,7,1,7,0.00
2013-7-24,73.8,58.2,49.8,43.5,40.5,37.7,73,54,31,30.10,29.98,11,1,11,0.00
2013-7-25,80.4,65.7,58.5,56.7,48.9,43.4,87,57,30,29.98,29.87,7,1,7,0.67
2013-7-26,58.5,53.5,45.3,55.2,49.5,40.5,90,86,80,30.10,29.90,8,1,8,0.20
2013-7-27,54.0,49.7,45.0,43.9,40.3,34.9,84,70,54,30.07,29.90,9,1,9,0.00
2013-7-28,65.5,55.7,49.3,49.9,45.2,37.1,90,70,41,30.07,29.93,9,1,9,0.08
2013-7-29,74.5,61.2,49.8,46.2,41.9,37.7,78,52,31,30.16,30.07,4,0,4,0.00
2013-7-30,70.3,63.7,55.0,55.3,48.5,42.3,79,58,43,30.16,30.07,6,1,6,0.00
2013-7-31,75.4,65.8,60.8,60.2,47.7,36.0,86,57,26,30.07,29.96,9,2,9,0.04
2013-8-1,75.0,64.4,56.8,49.2,42.2,38.3,66,46,28,29.98,29.87,9,1,9,0.00
2013-8-2,72.7,62.4,53.8,54.7,44.1,37.2,87,55,29,30.04,29.87,8,1,8,0.12
2013-8-3,72.9,61.2,53.1,48.5,42.0,37.3,68,51,28,30.22,30.04,10,1,10,0.00
2013-8-4,70.2,59.4,48.0,52.7,41.6,36.8,82,55,32,30.28,30.07,0,0,0,0.00
2013-8-5,68.5,61.1,52.2,59.7,52.3,41.5,87,73,53,30.07,29.81,6,0,6,0.75
2013-8-6,74.3,64.9,59.4,63.0,54.7,44.2,91,73,36,29.84,29.75,6,0,6,0.00
2013-8-7,72.3,63.0,53.8,56.3,43.3,33.1,85,53,26,30.04,29.78,8,1,8,0.04
2013-8-8,68.2,60.4,52.3,48.9,44.5,40.4,70,57,37,30.07,29.98,6,0,6,0.00
2013-8-9,67.6,60.9,54.9,47.4,40.9,36.3,68,49,33,30.13,29.98,9,1,9,0.00
2013-8-10,73.6,62.8,55.9,49.6,43.4,37.2,71,51,29,30.19,30.10,5,0,5,0.00
2013-8-11,75.6,64.3,57.4,50.6,43.8,37.5,74,49,31,30.13,30.01,6,0,6,0.00
2013-8-12,72.0,59.6,48.2,50.7,44.2,37.2,75,59,32,30.13,30.01,6,1,8,0.00
2013-8-13,64.0,55.2,46.4,48.7,40.2,35.9,83,59,38,30.22,30.13,5,0,5,0.00
2013-8-14,71.4,58.3,45.0,42.7,37.2,31.5,75,49,25,30.25,30.10,6,0,6,0.00
2013-8-15,77.4,64.9,55.8,44.5,39.3,34.7,58,40,23,30.13,30.10,6,0,6,0.00
2013-8-16,81.9,67.7,54.3,48.2,41.9,38.2,67,41,22,30.19,30.13,6,0,6,0.00
2013-8-17,81.3,69.3,59.4,46.2,42.0,38.7,56,38,22,30.22,30.10,10,2,10,0.00
2013-8-18,81.0,69.5,61.2,45.8,42.7,40.0,51,39,24,30.16,30.01,10,2,10,0.00
2013-8-19,86.5,73.0,64.8,55.7,49.5,42.8,68,44,30,30.01,29.90,9,3,9,0.00
2013-8-20,88.7,76.9,68.0,59.1,55.6,52.5,66,49,30,29.96,29.87,9,3,9,0.00
2013-8-21,84.7,74.7,64.6,67.7,55.1,39.7,73,52,26,30.04,29.84,8,2,8,0.00
2013-8-22,78.3,66.9,53.8,42.7,36.8,32.4,59,35,22,30.19,30.04,6,0,6,0.00
2013-8-23,82.2,63.4,49.8,51.2,41.9,36.0,73,48,20,30.22,30.10,5,0,5,0.00
2013-8-24,85.8,73.0,59.0,56.7,52.7,49.2,76,52,31,30.16,29.93,13,3,13,0.00
2013-8-25,94.5,82.3,75.9,62.8,57.8,54.1,56,44,27,29.99,29.93,12,4,12,0.00
2013-8-26,88.2,75.7,68.7,75.1,65.8,60.6,90,74,41,30.01,29.93,6,0,6,0.31
2013-8-28,83.1,75.8,70.2,71.1,59.5,50.1,86,59,33,30.07,30.04,4,0,4,0.00
2013-8-29,78.1,69.7,64.0,66.5,61.8,52.3,88,77,50,30.07,29.81,12,1,12,1.30
2013-8-30,75.0,68.9,61.3,65.5,55.4,48.6,80,64,42,30.01,29.87,6,1,6,0.00
2013-8-31,85.3,68.1,56.8,59.3,53.7,48.8,86,64,30,29.98,29.75,11,1,11,0.16
2013-9-1,74.8,64.9,55.4,59.5,49.2,42.1,81,58,33,29.98,29.72,11,2,11,0.00
2013-9-2,64.4,54.9,50.5,46.6,40.5,34.0,76,60,34,30.10,29.98,7,0,7,0.00
2013-9-3,76.5,62.3,49.6,43.6,40.4,37.3,72,47,28,30.10,29.96,8,2,8,0.00
2013-9-4,67.8,60.7,50.0,48.6,41.4,37.0,74,50,35,30.22,29.98,9,1,9,0.00
2013-9-5,76.3,59.0,47.3,54.2,43.0,35.9,85,60,25,30.31,30.16,5,0,5,0.00
2013-9-6,85.1,71.1,60.1,59.8,51.4,39.5,70,51,31,30.16,29.90,7,3,8,0.00
2013-9-7,77.5,67.0,55.4,61.6,52.6,42.6,83,61,42,30.16,29.90,7,1,7,0.00
2013-9-8,65.7,58.4,48.7,54.2,45.9,37.9,84,65,38,30.19,29.96,6,0,6,0.00
2013-9-9,70.3,64.1,60.1,66.9,57.5,50.5,89,79,68,29.96,29.69,5,0,5,0.12
2013-9-10,75.7,68.0,64.0,64.3,58.6,48.9,90,74,41,29.96,29.75,9,1,9,0.04
2013-9-11,74.8,64.9,54.5,58.6,49.2,37.9,85,60,27,30.07,29.96,9,1,9,0.08
2013-9-12,64.2,54.5,45.0,52.2,40.9,32.0,86,63,33,30.25,30.04,9,2,9,0.04
2013-9-13,66.4,50.4,42.4,47.0,36.6,32.3,85,62,30,30.31,30.10,5,0,5,0.00
2013-9-14,67.8,57.5,48.2,45.6,38.0,32.9,70,49,34,30.10,29.96,9,2,9,0.00
2013-9-15,55.2,49.7,37.0,48.9,40.0,29.9,84,70,48,30.34,29.98,9,1,9,0.00
2013-9-16,65.5,47.5,35.2,44.1,32.7,28.8,84,60,27,30.46,30.31,5,0,5,0.00
2013-9-17,70.7,55.5,43.0,39.7,34.3,29.8,74,47,26,30.31,30.01,8,3,8,0.00
2013-9-18,64.4,61.0,56.7,59.9,54.1,39.7,87,78,50,30.01,29.81,6,0,6,0.04
2013-9-19,72.7,66.3,61.3,68.0,61.1,57.4,90,84,66,29.81,29.69,8,0,8,0.63
2013-9-20,65.8,57.9,50.2,61.9,45.2,33.3,87,64,39,29.87,29.72,12,2,12,0.00
2013-9-21,59.7,49.1,37.8,36.8,30.7,24.6,71,50,30,30.01,29.87,7,1,7,0.00
2013-9-22,61.2,46.6,35.6,40.4,32.9,28.1,78,61,34,30.10,29.98,6,1,6,0.00
2013-9-23,72.9,56.2,45.9,40.5,36.3,31.4,75,49,28,30.07,29.98,9,3,9,0.00
2013-9-24,75.7,56.5,47.8,44.2,39.9,33.4,76,57,23,30.07,29.98,6,1,6,0.00
2013-9-25,66.7,49.6,44.6,50.4,42.2,36.7,83,76,39,30.04,29.98,6,0,6,0.00
2013-9-26,72.3,56.5,45.5,50.4,44.3,39.3,88,67,33,30.07,29.98,6,0,6,0.00
2013-9-27,73.2,66.1,57.0,52.3,42.5,37.7,63,43,33,30.04,29.93,7,2,7,0.00
2013-9-28,72.7,61.0,47.8,57.2,42.4,35.8,79,53,32,29.93,29.63,12,4,12,0.12
2013-9-29,72.9,55.7,44.8,40.9,35.5,28.9,82,51,22,29.98,29.87,7,2,7,0.00
2013-9-30,73.8,62.3,54.5,40.0,35.8,33.4,47,38,26,29.87,29.66,14,4,14,0.00
2013-10-1,74.3,63.5,55.6,41.2,31.0,21.5,48,31,16,29.96,29.60,12,4,12,0.00
2013-10-2,76.1,58.7,49.8,44.5,29.2,20.6,75,35,15,30.07,29.96,8,1,8,0.24
2013-10-3,55.9,52.5,50.7,50.7,46.8,39.5,88,81,55,30.04,29.98,7,2,7,0.39
2013-10-4,54.1,51.8,49.3,47.9,43.3,39.7,86,73,63,30.13,30.04,10,4,10,0.04
2013-10-5,51.4,50.5,49.1,48.9,47.6,44.3,92,89,83,30.10,29.75,11,4,11,1.42
2013-10-6,51.3,48.8,42.3,49.3,45.9,37.6,93,90,83,29.78,29.69,6,1,6,0.04
2013-10-7,48.0,43.8,41.5,40.5,37.4,29.1,86,78,56,30.01,29.78,6,2,6,0.00
2013-10-8,74.7,58.4,42.1,34.8,30.6,28.1,67,38,21,30.01,29.87,12,4,12,0.00
2013-10-9,76.3,64.1,56.7,37.8,33.7,29.1,47,33,23,30.10,29.96,10,4,10,0.00
2013-10-10,69.4,57.2,50.7,37.2,33.6,32.0,57,41,27,30.10,30.01,7,1,7,0.00
2013-10-11,76.1,66.2,47.3,43.9,38.6,35.1,71,38,23,30.01,29.75,10,3,10,0.00
2013-10-12,65.1,56.1,47.3,41.1,33.3,26.2,69,43,31,30.07,29.72,15,5,15,0.00
2013-10-13,57.9,46.9,35.4,36.9,25.3,18.0,68,45,24,30.43,30.07,9,2,9,0.00
2013-10-14,51.4,44.3,34.7,33.4,25.4,20.8,64,48,33,30.46,30.19,7,1,7,0.00
2013-10-15,50.0,46.9,43.9,46.2,40.5,26.9,91,80,41,30.19,29.78,13,4,13,1.06
2013-10-16,51.3,43.0,38.5,40.1,30.6,19.9,85,64,35,29.93,29.84,9,2,9,0.00
2013-10-17,50.2,44.1,37.6,38.0,28.6,23.7,80,55,40,29.87,29.81,6,1,6,0.08
2013-10-18,50.4,41.6,33.3,37.9,27.8,16.0,84,61,28,29.93,29.81,9,2,9,0.16
2013-10-19,43.2,37.2,31.1,34.5,28.5,24.4,82,71,51,29.84,29.69,8,1,8,0.12
2013-10-20,40.8,33.9,29.3,31.9,26.7,23.5,86,75,52,29.78,29.72,6,0,6,0.16
2013-10-21,35.1,32.2,29.5,31.3,21.9,13.9,86,66,47,29.84,29.75,14,4,14,0.04
2013-10-22,35.4,33.7,29.1,24.2,18.6,14.3,66,54,42,30.01,29.84,7,1,7,0.04
2013-10-23,36.1,32.7,30.7,21.6,15.0,11.1,65,48,39,30.01,29.93,11,3,11,0.00
2013-10-24,41.0,34.8,31.1,21.6,17.8,13.5,67,50,36,30.25,30.01,9,3,9,0.08
2013-10-25,49.6,39.3,29.5,24.9,19.1,15.1,61,45,30,30.25,29.66,17,5,17,0.00
2013-10-26,48.0,40.5,37.2,23.8,19.1,15.9,54,42,34,30.04,29.69,12,4,12,0.00
2013-10-27,49.1,38.5,32.0,24.0,17.9,15.7,68,44,30,30.25,29.81,13,5,13,0.00
2013-10-28,35.4,30.5,23.2,22.5,15.5,9.0,67,54,41,30.52,30.25,12,3,12,0.00
2013-10-29,35.8,29.5,22.1,27.0,18.7,12.8,78,65,43,30.49,30.16,9,0,9,0.00
2013-10-30,45.1,38.1,33.1,41.5,33.6,27.3,88,84,79,30.16,29.72,5,0,5,0.08
2013-10-31,48.7,45.7,42.8,45.7,43.0,40.4,92,90,88,29.72,29.34,6,1,6,0.24
2013-11-1,42.8,39.8,36.1,40.5,32.3,25.0,92,74,64,29.81,29.34,9,3,9,0.04
2013-11-2,43.5,35.6,29.1,25.9,21.5,17.8,70,57,39,30.13,29.81,8,2,8,0.00
2013-11-3,49.3,38.1,29.5,23.3,19.9,15.1,71,50,31,30.19,30.04,10,3,10,0.00
2013-11-4,44.2,41.9,35.1,38.8,26.7,19.5,84,56,38,30.10,29.87,13,5,13,0.12
2013-11-5,44.2,36.1,30.4,26.0,18.8,12.0,75,52,30,30.22,30.04,12,3,12,0.00
2013-11-6,36.7,31.7,29.1,26.2,17.7,8.3,79,58,37,30.10,29.98,9,2,9,0.00
2013-11-7,38.3,30.6,26.8,16.0,9.8,4.3,52,42,34,30.16,30.10,9,3,9,0.00
2013-11-8,36.9,31.1,22.1,25.0,13.4,4.3,67,48,37,30.19,29.66,9,3,9,0.04
2013-11-9,37.2,35.3,33.3,30.2,25.3,20.1,80,67,52,30.04,29.60,14,4,14,0.12
2013-11-10,42.6,36.4,31.1,23.0,16.6,12.2,67,45,31,30.25,30.04,15,5,15,0.00
2013-11-11,31.1,21.8,16.0,19.1,1.6,-2.5,62,41,34,30.63,30.07,13,5,13,0.00
2013-11-12,29.7,20.5,12.6,2.6,-1.6,-3.8,47,38,28,30.66,30.34,13,6,13,0.00
2013-11-13,48.7,35.3,21.9,19.7,10.6,-1.6,45,36,28,30.34,29.78,18,8,18,0.00
2013-11-14,46.0,39.3,35.6,22.3,20.5,18.2,55,47,38,29.81,29.75,9,3,9,0.00
2013-11-15,53.4,41.5,34.7,26.8,23.0,20.2,66,49,29,29.84,29.69,11,4,11,0.00
2013-11-16,46.0,42.3,40.1,38.4,29.4,21.7,88,62,46,29.69,29.31,14,4,14,0.28
2013-11-17,44.1,40.1,31.3,41.0,31.8,12.4,90,74,45,29.60,29.28,16,5,16,0.04
2013-11-18,31.3,27.7,24.8,11.8,7.5,5.6,44,42,40,30.22,29.60,18,5,18,0.04
2013-11-19,39.7,30.8,18.9,11.0,8.1,4.2,57,39,29,30.28,29.96,14,4,14,0.04
2013-11-20,43.3,38.9,33.6,23.3,14.0,9.9,65,37,29,30.04,29.93,14,6,14,0.04
2013-11-21,35.6,30.5,22.6,27.1,15.6,3.5,71,54,42,30.46,30.04,11,4,11,0.04
2013-11-22,32.2,21.6,11.8,4.5,1.0,-7.8,52,41,23,30.52,30.34,17,5,17,0.04
2013-11-23,14.4,9.9,2.7,-6.2,-10.4,-18.4,40,38,35,30.72,30.52,12,4,12,0.00
2013-11-24,28.0,15.1,2.1,3.9,-7.7,-18.9,37,35,33,30.63,29.81,20,6,20,0.00
2013-11-25,37.4,31.7,26.8,15.8,10.7,3.8,50,41,35,29.96,29.75,20,6,20,0.00
2013-11-26,26.6,16.0,12.7,5.6,-4.0,-7.5,55,40,33,30.28,29.96,20,5,20,0.00
2013-11-27,23.5,18.6,14.5,8.9,3.7,-0.2,64,52,37,30.28,30.10,6,2,6,0.00
2013-11-28,24.8,20.3,17.1,9.4,6.5,3.5,65,55,41,30.46,30.07,8,2,8,0.00
2013-11-29,25.9,20.1,12.2,7.8,4.0,1.0,61,50,41,30.52,30.16,12,4,12,0.00
2013-11-30,35.4,29.3,25.5,14.5,10.7,6.3,52,45,40,30.16,30.01,10,3,10,0.00
2013-12-1,33.3,29.7,27.0,17.2,13.4,8.8,58,50,44,30.16,29.96,8,2,8,0.00
2013-12-2,30.9,28.2,23.5,24.7,16.5,8.4,80,62,47,29.96,29.75,7,2,7,0.00
2013-12-3,30.6,28.7,26.4,25.7,20.7,11.8,84,72,52,29.93,29.75,11,5,11,0.00
2013-12-4,30.9,29.1,26.6,27.5,23.9,17.4,87,81,63,29.93,29.34,12,5,12,0.00
2013-12-5,28.0,10.7,-0.2,24.2,-0.7,-11.5,86,59,56,30.13,29.39,19,8,19,0.00
2013-12-6,5.0,-0.8,-6.5,-6.5,-12.0,-17.4,58,58,58,30.46,30.13,13,5,13,0.00
2013-12-7,-0.9,-7.0,-13.4,-12.1,-17.9,-23.9,58,58,58,30.55,30.46,12,5,12,0.00
2013-12-8,7.7,-2.9,-14.1,-4.0,-14.0,-24.6,58,58,58,30.52,29.98,9,2,9,0.00
2013-12-9,8.1,-0.3,-8.9,-3.7,-11.6,-19.8,58,58,58,29.98,29.84,17,5,17,0.00
2013-12-10,6.3,-1.7,-9.2,-5.3,-12.9,-20.0,58,58,58,30.13,29.78,13,4,13,0.00
2013-12-11,-0.4,-6.3,-13.5,-11.6,-17.3,-24.1,58,58,58,30.40,30.13,12,5,12,0.00
2013-12-12,8.6,3.0,-8.0,-3.1,-8.4,-18.8,58,58,58,30.22,30.10,12,4,12,0.00
2013-12-13,10.2,6.2,2.3,-1.6,-5.4,-9.1,58,58,58,30.34,30.13,9,4,9,0.00
2013-12-14,12.7,7.9,2.5,0.8,-3.8,-8.9,58,58,58,30.34,29.90,11,1,11,0.00
2013-12-15,6.4,-2.2,-6.9,-5.3,-13.4,-17.8,58,58,58,30.07,29.93,11,5,11,0.00
2013-12-16,12.0,3.1,-8.0,0.1,-8.4,-18.8,58,58,58,30.07,29.78,12,4,12,0.00
2013-12-17,24.3,15.4,3.7,14.0,1.4,-12.9,66,54,44,30.01,29.72,11,5,11,0.00
2013-12-18,20.5,8.4,-2.6,1.5,-9.4,-18.6,56,44,36,30.01,29.63,7,2,7,0.00
2013-12-19,16.7,14.3,11.3,3.4,0.4,-2.9,59,53,46,30.10,29.75,10,4,10,0.00
2013-12-20,22.1,13.9,7.3,5.7,-0.4,-8.6,61,53,43,30.07,29.84,6,1,6,0.00
2013-12-21,24.3,16.7,7.5,13.3,2.5,-8.5,70,53,42,30.01,29.84,11,2,11,0.00
2013-12-22,21.7,19.3,16.7,12.8,9.8,7.1,70,66,61,30.13,29.93,14,5,14,0.00
2013-12-23,16.7,12.0,6.6,7.0,0.4,-6.3,65,59,54,30.40,30.13,9,4,9,0.00
2013-12-24,12.9,5.5,-5.3,-0.2,-7.1,-17.3,55,55,55,30.37,30.07,11,4,11,0.00
2013-12-25,17.2,11.5,7.7,3.2,-1.7,-5.1,57,55,47,30.07,29.96,12,4,12,0.00
2013-12-26,13.6,7.6,0.9,1.2,-4.4,-10.8,57,57,57,30.13,30.01,7,1,7,0.00
2013-12-27,35.6,24.2,5.2,19.5,10.9,-6.9,75,57,42,30.13,29.75,15,4,15,0.00
2013-12-28,30.9,25.1,13.8,22.7,15.9,1.9,79,68,55,29.98,29.75,16,3,16,0.00
2013-12-29,13.8,-1.7,-13.5,2.2,-12.5,-23.7,59,59,59,30.19,29.98,11,5,11,0.00
2013-12-30,-2.6,-10.6,-18.8,-13.3,-21.0,-28.7,59,59,59,30.19,30.10,9,4,9,0.00
2013-12-31,-6.0,-11.7,-17.3,-16.6,-22.0,-27.5,59,59,59,30.37,30.07,10,4,10,0.00
2014-1-1,-0.4,-6.8,-17.5,-11.3,-17.3,-27.5,59,59,59,30.46,30.37,7,4,7,0.00
2014-1-2,5.9,-4.5,-9.9,-5.5,-15.2,-20.5,59,59,59,30.40,30.28,7,3,7,0.00